Wind_Speed
62 59 57 56 57 58 58 59 59 60 61 64 66 66 65 63 61 59 56 52 51 52 55 53 49 47 48 49 49 48 49 49 49 49 50 50 51 51 50 49 50 50 50 49 49 48 48 48 47 46 43 40 37 38 40 43 45 45 45 46 49 53 57 60 59 54 50 48 48 48 46 44 42 37 32 31 33 34 31 28 27 24 20 19 20 22
64 59 58 58 59 60 59 60 60 60 60 62 64 66 66 64 62 60 56 52 52 54 54 51 48 49 49 49 48 48 49 49 49 50 50 51 51 50 49 49 49 50 49 49 48 47 46 46 46 44 43 41 39 38 39 41 44 45 45 46 48 50 53 57 59 58 55 51 48 47 44 43 44 39 34 31 32 32 30 28 27 25 22 21 23 27
65 61 60 61 61 60 60 60 60 60 60 61 63 64 65 65 64 61 56 53 54 55 53 50 49 50 49 49 48 49 49 50 50 50 51 51 51 50 49 49 49 49 48 48 48 47 45 44 44 43 42 41 41 41 39 40 42 44 45 46 48 49 50 53 56 57 56 54 49 44 40 39 41 40 37 34 32 32 32 31 30 29 28 27 28 32
66 64 64 63 62 61 60 60 60 60 60 60 60 61 64 66 66 62 57 54 55 55 53 51 50 50 50 49 49 49 50 50 50 50 51 51 51 49 49 49 49 48 47 48 48 47 45 44 43 43 42 41 41 42 41 40 41 43 43 45 47 48 49 50 52 54 55 54 49 42 35 32 34 34 35 37 37 34 32 33 32 30 31 31 31 34
67 67 67 66 64 62 62 61 59 59 59 59 58 59 63 66 66 63 58 56 56 55 53 52 51 50 49 49 49 50 51 51 51 50 51 51 50 49 49 49 49 48 48 48 48 47 46 45 44 43 42 40 39 40 41 41 42 41 42 43 44 46 47 48 50 51 53 54 50 45 40 35 33 31 30 34 38 36 33 33 33 32 33 33 33 34
67 68 68 66 65 64 63 61 60 59 59 59 57 58 62 65 65 63 59 57 57 56 55 53 51 50 49 49 50 51 52 51 51 51 50 50 50 50 50 49 48 48 49 48 47 46 46 45 44 42 41 39 38 38 39 41 41 41 41 42 42 44 45 47 49 50 51 53 53 50 45 39 34 33 30 30 35 37 33 32 33 33 34 34 34 37
67 68 68 67 67 66 63 62 61 60 59 58 57 59 61 62 63 63 60 58 59 57 56 54 52 50 50 51 52 52 52 52 51 50 49 49 50 50 50 49 48 48 48 48 47 46 46 45 44 42 40 38 38 38 38 39 38 39 39 40 41 42 43 45 47 49 50 51 53 52 50 44 38 37 36 32 32 32 30 31 32 32 32 35 36 37
66 67 68 67 67 65 63 62 62 60 58 57 58 60 61 61 61 62 61 60 60 59 57 55 52 51 51 53 53 53 53 52 51 49 49 49 49 50 50 49 48 48 47 47 47 46 45 44 42 40 39 38 38 39 39 39 37 37 38 38 40 41 42 44 45 47 48 49 50 51 51 49 45 43 40 38 35 30 30 33 32 30 30 33 34 35
67 68 69 67 65 63 62 62 62 61 58 57 60 61 61 59 59 61 61 61 61 60 58 55 52 51 52 53 54 54 54 52 50 49 48 49 49 49 49 49 48 47 47 47 46 45 44 43 41 40 39 39 39 39 39 39 38 37 37 36 37 38 40 43 45 46 47 48 48 49 50 50 49 48 42 40 38 31 31 35 32 29 30 31 32 33
70 70 70 68 65 64 64 64 64 61 58 59 61 62 60 59 58 60 62 62 62 60 58 55 52 52 53 54 55 54 53 51 49 49 48 49 49 49 48 48 47 47 47 47 45 43 42 41 40 40 40 39 39 39 39 39 38 38 38 36 36 37 38 40 44 46 46 46 47 48 49 48 49 51 45 41 40 36 36 40 37 34 32 32 33 35
71 71 69 66 64 65 66 65 64 61 60 61 62 61 60 58 58 59 62 62 62 60 57 54 52 52 54 54 55 54 52 50 49 49 49 49 49 48 48 47 47 47 47 45 44 43 42 41 40 40 40 39 39 40 40 40 40 39 38 37 37 38 38 39 41 44 46 46 46 47 48 47 48 52 50 45 42 43 44 43 42 41 37 35 35 36
69 68 64 62 63 65 65 64 63 62 61 62 62 61 60 59 57 58 61 61 61 58 56 53 52 53 54 54 54 53 51 50 50 49 49 49 48 48 48 47 46 46 46 45 44 43 42 41 41 40 40 40 41 41 42 42 43 42 40 38 39 41 41 41 41 42 45 46 47 47 48 50 51 52 52 50 48 48 47 44 43 44 42 39 38 37
66 64 61 60 62 64 64 63 62 61 61 62 62 60 59 57 55 55 58 59 58 56 54 53 53 53 54 54 53 52 51 51 50 50 50 49 48 48 47 46 46 45 44 44 44 43 42 41 41 40 40 41 41 42 43 44 45 45 45 43 41 43 45 44 43 43 44 46 48 48 49 52 54 53 54 56 55 53 50 46 44 44 42 40 38 36
63 60 58 59 60 61 62 61 60 59 59 59 59 58 56 54 52 52 54 55 54 54 54 53 53 54 55 54 52 51 51 51 50 50 50 48 48 47 47 46 45 44 43 43 43 43 42 42 41 41 41 41 42 42 43 45 47 48 49 48 45 44 45 46 46 45 45 46 48 50 51 53 55 55 57 61 61 58 53 48 45 44 43 44 42 37
59 56 55 56 58 59 60 60 59 59 59 59 58 56 54 52 51 52 53 53 54 55 55 55 55 56 55 53 52 51 51 51 51 51 50 48 47 47 46 45 44 43 43 43 43 43 43 43 43 43 44 44 45 46 46 47 50 51 52 51 49 46 44 44 46 47 47 46 48 51 52 51 54 56 57 60 63 62 56 49 45 44 44 46 48 44
55 54 55 57 58 59 60 60 60 61 60 59 58 56 54 53 54 54 54 55 57 58 58 57 57 56 54 53 51 50 50 50 51 51 49 47 47 46 45 44 43 43 44 44 43 44 44 44 45 46 46 48 48 49 49 49 51 53 53 52 50 47 45 45 45 47 47 47 47 50 52 51 52 55 55 56 61 65 62 54 48 45 44 44 47 48
53 54 57 58 58 60 61 61 61 60 59 57 55 54 53 54 55 56 56 57 59 59 58 57 55 54 53 52 51 51 50 50 50 50 48 46 46 46 45 43 43 44 44 43 44 44 45 46 47 48 49 50 50 50 50 51 52 52 51 50 48 47 47 45 44 45 46 47 47 50 52 52 51 54 54 53 56 63 67 62 56 52 49 46 44 44
53 56 57 58 59 60 61 60 60 59 58 56 55 55 56 56 56 56 57 57 58 58 56 55 54 53 52 52 51 50 50 50 50 48 47 47 47 46 44 43 44 44 43 44 45 46 47 48 49 50 51 51 51 51 52 53 53 51 49 47 45 44 44 43 41 41 43 46 47 48 52 53 51 52 53 52 52 58 65 68 64 57 51 47 42 40
55 58 58 59 59 60 60 60 59 58 57 57 58 59 59 57 57 57 57 57 57 56 54 53 53 52 52 53 52 50 51 51 50 48 48 48 48 47 45 44 44 44 44 45 46 47 49 50 51 52 52 52 52 52 53 54 52 49 46 44 42 40 40 40 39 39 40 42 44 46 50 53 52 51 50 50 50 51 58 66 68 62 54 47 43 41
56 57 57 58 58 58 59 59 58 57 57 58 59 59 58 56 57 58 57 57 56 55 54 54 53 53 53 54 52 51 52 51 50 49 50 49 48 47 45 45 45 46 46 47 48 49 50 51 52 52 52 53 53 53 54 53 51 48 45 42 38 37 37 37 37 36 37 39 41 43 47 50 51 49 48 47 47 47 50 55 60 61 56 50 48 48
55 56 56 57 57 57 57 57 57 58 58 58 57 56 54 54 55 56 56 55 55 54 54 54 55 56 56 55 54 53 51 51 51 51 50 49 49 48 47 47 47 48 48 48 49 50 51 51 52 52 52 53 53 54 55 53 49 47 44 40 36 34 33 34 33 33 35 36 38 41 44 47 48 48 47 46 45 45 45 45 47 51 52 51 50 51
53 54 55 55 55 56 56 56 58 58 58 58 58 57 56 56 56 57 56 55 55 55 54 55 56 57 57 55 54 52 51 52 52 50 50 50 50 50 49 50 49 49 49 49 49 50 50 51 51 51 52 53 54 55 55 51 48 46 43 38 34 31 29 30 30 31 33 35 36 39 42 45 46 45 45 45 45 44 43 42 41 42 45 48 50 50
53 53 53 54 54 55 56 57 58 58 58 58 58 58 57 57 58 58 57 56 56 55 55 55 57 57 56 55 54 53 53 53 52 51 52 53 52 51 51 51 51 51 50 49 49 50 50 51 51 51 52 52 54 55 54 50 46 44 41 37 32 28 26 27 28 30 32 33 35 38 41 43 44 43 43 44 46 46 44 41 39 38 40 44 45 46
52 52 52 52 53 55 56 57 57 57 57 57 57 57 56 56 56 55 55 55 54 54 54 55 56 57 57 57 56 55 55 54 53 54 54 54 53 53 52 52 52 51 50 49 49 50 51 51 51 51 52 53 54 54 52 49 45 42 40 35 29 25 24 25 28 31 32 33 34 37 40 42 43 43 42 43 46 48 47 43 40 39 40 42 43 44
53 52 52 52 53 55 55 54 54 54 54 55 55 55 55 55 54 54 53 53 53 54 55 56 57 58 58 58 57 57 56 55 55 55 55 55 55 54 54 53 52 51 50 50 50 50 51 51 52 52 52 53 53 52 51 49 44 41 38 33 26 23 23 24 28 31 33 35 36 37 40 42 44 45 44 43 44 46 48 46 43 40 39 39 40 41
53 54 54 54 54 53 51 50 50 51 52 53 53 54 54 53 53 53 53 53 54 55 56 57 58 59 59 59 59 58 56 56 57 57 57 57 57 56 55 53 52 51 50 50 50 50 51 51 52 52 53 52 51 51 50 48 44 39 36 31 24 21 22 24 30 33 35 38 37 37 41 43 44 45 43 42 41 43 45 45 42 40 39 39 39 39
54 55 56 56 54 52 51 51 52 52 53 53 53 53 53 53 53 54 54 55 56 57 58 59 60 60 60 60 59 59 58 58 58 58 58 58 57 57 55 54 52 51 50 50 50 50 51 52 52 52 52 51 50 50 48 46 43 38 34 30 23 20 21 24 33 37 39 40 39 37 40 42 43 44 43 42 41 42 42 41 39 39 39 41 41 40
55 55 54 54 53 53 53 54 55 55 55 54 54 54 54 54 54 55 55 57 57 58 59 60 60 61 61 61 61 60 60 60 60 60 59 59 58 57 56 54 53 51 50 50 50 51 51 52 52 52 51 49 49 49 47 44 41 37 33 29 24 20 20 24 35 42 42 42 41 39 40 42 43 43 43 42 42 42 40 39 39 39 39 41 43 43
57 55 54 52 53 54 55 56 56 56 55 55 55 55 55 55 55 56 56 56 57 58 59 60 61 61 61 62 62 62 61 61 61 61 60 59 58 58 57 55 53 51 51 50 50 51 52 52 52 51 49 49 48 47 46 43 39 36 32 28 24 21 20 24 35 45 46 44 42 41 41 42 42 42 42 42 42 43 41 39 39 39 39 40 41 41
58 57 56 54 54 55 56 56 56 56 56 55 55 56 55 56 56 56 56 56 57 58 60 60 60 61 62 62 62 62 62 62 62 61 60 59 58 58 57 56 54 52 51 51 51 51 52 52 51 50 49 48 47 45 44 41 38 34 31 28 25 23 21 22 31 44 50 47 44 42 42 42 42 41 41 41 43 44 43 41 40 39 41 41 39 38
59 58 57 55 55 56 56 56 57 57 57 57 57 57 56 56 56 56 56 57 58 59 60 61 61 61 62 62 62 62 62 62 62 61 60 59 58 58 57 56 55 53 52 52 51 52 52 52 50 49 47 46 45 43 42 40 37 33 30 28 26 25 24 23 26 37 49 52 48 46 45 43 43 43 42 42 43 44 44 44 44 43 44 45 43 41
59 58 57 56 56 56 57 57 57 57 57 58 58 57 57 57 57 57 58 58 59 60 61 61 62 62 63 63 63 63 62 62 61 60 60 60 59 58 58 57 55 54 52 52 52 52 52 51 49 47 46 44 43 42 41 39 36 34 31 29 27 26 26 25 25 30 41 51 53 52 51 49 47 47 45 44 45 45 45 46 46 45 46 47 46 45
58 57 56 56 56 56 56 56 57 57 58 58 58 57 57 58 58 59 59 60 61 62 62 62 63 63 64 63 63 63 62 62 61 61 60 60 60 59 58 58 56 54 53 53 53 52 51 50 48 45 44 43 41 41 40 39 36 34 33 31 29 27 28 28 28 27 33 44 52 55 55 55 54 52 51 48 47 47 49 49 47 45 46 48 47 47
55 55 55 54 54 54 54 55 56 56 56 56 56 57 58 58 59 60 60 61 62 63 63 63 64 64 63 63 62 62 62 62 62 61 61 61 61 60 59 58 56 55 54 54 54 53 52 50 48 45 43 42 41 41 40 38 36 34 33 33 31 29 29 31 31 30 31 36 46 52 55 56 56 56 56 54 51 50 51 52 50 48 47 48 49 49
52 52 52 52 52 52 52 53 53 53 53 54 56 56 57 58 59 60 60 60 61 62 62 63 63 62 62 62 63 63 63 63 62 62 62 62 61 61 60 58 56 56 55 55 55 54 53 51 48 45 44 43 42 41 39 38 36 35 33 34 34 32 32 33 34 34 33 34 39 47 52 54 55 56 56 56 55 53 52 53 53 51 49 49 49 49
50 51 51 51 51 51 51 51 51 51 53 54 55 56 57 59 60 60 60 61 61 62 62 62 62 62 62 62 63 63 63 63 63 63 62 62 62 61 59 57 56 56 56 56 56 55 54 52 49 46 44 44 43 41 40 38 36 35 34 34 36 36 34 35 36 37 37 36 36 41 47 52 54 55 55 54 54 52 51 51 52 53 52 50 50 51
49 50 50 51 51 51 51 52 52 53 53 54 56 57 58 59 60 60 60 60 61 61 62 62 62 62 62 63 63 63 64 64 64 63 63 62 61 60 59 57 57 57 58 58 58 57 55 52 49 46 44 44 43 43 41 39 37 36 36 35 36 38 37 37 38 39 39 39 39 39 41 46 51 54 55 55 54 53 52 51 52 53 53 50 49 50
49 49 50 51 51 51 52 53 53 53 54 56 58 58 59 59 59 59 60 59 59 60 60 61 61 62 62 63 63 64 64 64 64 63 62 61 60 60 59 58 58 58 59 59 59 58 56 53 50 48 45 44 44 44 43 40 38 36 36 35 35 37 39 40 40 41 41 42 42 42 42 43 45 48 51 54 56 56 55 55 54 54 54 52 50 51
47 49 50 50 51 51 52 53 53 54 55 57 58 58 58 59 59 60 59 58 59 60 60 61 62 63 63 63 63 64 64 63 63 62 61 60 60 60 59 59 60 60 60 60 60 59 56 53 51 50 48 46 46 46 45 43 40 38 36 36 35 35 38 41 42 43 43 44 45 45 45 45 44 44 46 49 52 55 56 57 57 57 56 55 54 55
47 49 50 51 52 53 53 54 55 55 56 57 58 58 58 59 60 60 60 59 60 62 62 62 63 63 63 63 63 64 64 63 62 62 61 60 60 60 60 61 62 61 61 61 60 58 57 55 54 53 50 49 48 48 47 45 43 40 38 37 36 36 37 41 43 44 45 46 47 48 49 49 47 46 45 46 48 51 53 55 56 57 57 56 57 58
47 49 50 51 52 54 55 56 57 57 58 59 59 59 60 61 61 61 61 61 62 62 63 63 63 63 63 64 64 64 64 63 62 62 62 61 61 61 62 63 63 62 61 61 60 59 59 58 58 56 53 51 50 50 49 48 47 44 41 39 37 37 37 40 43 45 46 47 48 49 50 51 51 49 48 48 48 49 51 53 55 56 57 58 59 60
47 48 49 51 52 54 55 56 57 59 60 61 61 62 62 62 62 62 62 62 62 62 63 63 63 63 63 64 64 64 64 63 63 62 62 62 62 62 64 65 65 63 62 61 61 61 60 60 59 57 54 52 52 51 51 50 50 48 45 42 40 38 38 39 42 45 47 48 50 51 52 52 53 53 52 50 50 50 51 53 56 58 59 60 61 62
49 50 51 52 54 55 56 57 58 59 61 61 62 62 62 62 62 62 63 63 63 63 64 64 63 63 63 64 64 64 63 64 63 63 63 64 65 65 66 67 66 64 63 62 61 61 61 60 59 56 54 53 53 53 53 53 53 51 49 46 44 42 40 40 41 43 46 48 51 52 54 54 54 55 54 54 53 52 52 54 57 60 62 63 63 64
51 53 54 55 56 56 57 58 59 60 60 61 61 61 61 61 62 62 62 63 63 63 64 64 64 64 64 64 64 64 64 65 65 66 66 67 67 67 66 66 65 64 63 62 62 61 60 59 57 56 55 54 55 55 55 55 55 55 53 51 49 47 45 43 42 43 45 47 50 53 54 56 56 57 57 57 56 55 55 55 58 61 63 65 66 66
54 55 56 56 57 58 59 59 59 60 60 60 61 61 62 62 62 62 63 63 63 64 64 64 65 65 65 66 66 66 67 68 68 68 68 67 66 65 64 64 64 64 63 62 60 59 59 58 58 57 57 57 57 57 58 58 58 58 57 55 54 52 50 48 46 45 45 46 49 51 54 56 58 59 60 60 59 58 58 58 59 61 63 65 67 69
55 56 57 57 58 59 59 60 60 61 61 62 62 62 63 63 64 64 64 64 65 66 66 66 66 67 67 68 68 68 68 68 67 66 65 64 63 62 62 62 62 62 61 61 60 59 59 59 60 60 60 60 60 60 60 61 61 61 60 59 58 56 55 53 51 49 48 48 48 50 52 55 57 60 61 63 63 62 61 61 61 62 63 66 68 70
52 54 55 56 57 58 59 60 60 61 61 62 62 63 63 64 64 64 64 65 65 66 66 66 66 66 66 66 65 65 64 63 62 61 60 60 59 59 59 60 61 61 61 61 61 61 61 62 62 62 62 62 62 63 63 63 63 63 63 63 62 60 59 58 56 55 53 52 51 51 52 54 56 58 61 63 64 65 65 65 64 63 64 66 68 70
49 50 51 53 54 55 56 57 58 58 59 60 60 60 61 61 61 61 61 61 62 62 62 62 62 61 61 61 60 59 59 59 58 58 58 58 58 59 60 61 61 62 62 63 63 63 63 63 63 63 62 62 63 63 64 64 65 65 66 66 65 64 63 61 60 59 58 57 56 55 55 55 56 58 60 62 64 65 67 68 68 67 66 67 69 70
48 48 49 50 51 52 53 54 55 55 56 57 57 58 58 58 58 58 58 59 59 59 59 59 58 58 58 57 57 57 57 57 58 58 59 59 60 61 62 62 63 63 63 63 63 63 63 63 63 62 62 61 62 62 63 64 65 66 67 67 67 66 65 64 64 63 62 62 61 61 59 58 58 59 60 61 63 64 66 69 72 72 70 69 70 71
47 48 48 49 50 51 51 52 53 54 54 55 56 56 56 56 57 57 57 57 57 57 57 57 57 57 57 57 57 57 57 58 59 60 60 61 61 61 61 61 61 61 61 60 60 60 60 60 60 60 59 59 59 60 61 62 63 64 65 66 66 66 66 66 66 66 66 66 65 65 64 63 62 61 62 63 64 65 66 68 71 74 74 74 73 73
45 46 47 47 48 49 50 51 51 52 53 54 54 54 55 55 55 56 56 56 56 56 56 57 57 57 58 58 58 58 58 58 59 59 59 59 58 58 58 57 57 56 56 55 55 55 55 56 56 56 57 57 57 58 59 60 61 62 63 64 65 66 67 67 68 68 68 68 68 68 68 67 66 65 65 65 65 66 67 68 70 73 75 77 77 76
Wind_Direction
229 227 226 226 227 228 229 230 230 231 232 232 231 229 228 230 232 234 234 235 237 239 241 243 244 243 243 244 246 248 251 254 257 260 263 266 269 273 277 282 285 288 290 291 292 293 294 293 290 288 285 280 272 263 256 252 251 250 249 249 249 246 244 243 242 244 248 252 251 250 247 244 245 248 250 253 257 260 261 259 256 248 246 251 247 242
230 227 227 227 226 226 227 228 229 230 231 232 231 230 228 229 231 233 233 234 236 239 241 243 244 243 243 244 246 248 251 254 256 259 263 266 270 274 279 283 286 289 290 291 292 294 295 293 290 288 286 281 274 266 258 254 252 252 251 251 252 250 248 246 243 242 244 248 251 249 249 247 247 248 246 246 252 259 261 258 251 244 241 240 237 241
231 229 229 228 226 226 226 227 228 228 230 231 231 230 229 228 230 231 232 232 235 239 241 242 243 242 242 244 245 247 250 253 256 259 263 267 271 276 280 284 287 288 290 291 293 294 294 291 287 285 282 279 275 270 264 260 258 257 255 253 253 252 251 249 246 243 242 245 249 248 250 252 249 249 247 244 247 255 260 259 252 247 247 247 247 253
232 230 230 230 227 226 226 226 227 228 229 230 231 230 229 228 229 230 230 232 235 239 241 241 241 241 242 243 245 247 250 253 256 259 263 268 272 277 281 284 287 288 289 291 293 294 293 289 285 283 281 278 276 273 270 266 263 261 259 256 254 253 252 250 247 245 241 241 244 242 243 248 246 247 249 246 246 252 258 260 257 252 253 255 255 256
230 230 229 229 227 226 226 226 226 227 228 230 231 231 230 229 228 228 228 231 234 238 240 240 240 240 241 243 245 247 250 252 255 259 263 268 273 277 281 284 287 288 289 291 293 294 293 289 285 283 281 278 275 273 272 270 266 263 260 257 254 252 251 251 249 247 243 239 239 238 236 237 238 241 249 249 248 251 256 259 260 258 257 255 252 251
228 229 229 228 227 226 225 225 225 226 227 228 229 230 230 229 229 228 227 230 234 237 239 239 239 240 241 243 244 246 249 252 255 259 263 269 274 278 282 285 286 287 289 292 294 295 293 290 287 285 282 281 277 274 271 270 268 265 260 257 254 252 251 250 248 247 245 241 239 239 236 234 236 238 242 249 250 250 254 256 256 259 258 253 249 248
227 229 229 228 227 226 224 223 224 225 226 227 228 230 230 230 229 227 227 230 233 236 238 238 239 239 240 242 244 246 249 252 255 259 264 269 274 279 282 284 285 287 289 292 294 295 293 291 289 288 285 283 280 276 273 270 269 267 263 258 254 252 251 250 249 247 246 243 240 240 237 233 233 234 235 242 248 248 248 250 252 254 251 247 245 247
226 229 229 227 227 226 224 223 223 224 224 226 227 229 230 229 228 226 226 229 232 235 236 238 238 238 239 242 244 246 249 252 256 260 265 269 274 279 282 284 285 287 289 292 294 295 293 292 290 288 285 281 278 276 274 273 272 270 266 262 258 253 250 250 250 247 245 243 241 240 238 233 230 230 229 233 241 244 245 248 249 247 241 238 240 244
225 227 228 227 225 225 225 224 223 222 222 224 226 228 228 228 227 225 225 228 231 233 235 237 237 238 239 242 244 247 249 253 257 261 265 269 274 278 281 282 284 286 290 293 295 294 293 292 290 287 283 280 278 277 277 276 275 272 268 264 261 257 253 249 249 248 245 243 240 238 237 234 230 227 224 227 233 236 240 242 239 234 231 232 235 236
224 226 226 225 223 223 223 222 222 221 221 223 225 226 227 227 226 224 224 227 230 232 235 236 237 237 239 242 244 247 250 254 257 261 265 269 273 277 279 280 283 286 290 292 293 293 292 290 288 285 282 281 281 281 281 280 278 275 270 265 263 262 257 252 248 247 245 242 240 236 234 233 232 228 222 223 230 232 233 237 235 229 227 229 231 229
225 226 226 224 222 222 221 220 220 219 220 222 224 225 226 226 225 223 223 226 229 231 234 235 236 237 238 241 244 247 251 254 258 261 264 268 272 275 277 279 282 285 289 291 292 291 290 288 286 285 285 285 285 285 284 283 280 279 275 267 263 262 260 257 252 248 246 243 239 236 233 230 230 228 222 219 224 229 231 233 234 232 229 228 229 229
227 228 227 225 223 222 221 220 218 218 220 222 224 225 225 226 225 223 223 225 228 231 233 234 234 236 238 241 244 248 251 255 258 261 264 268 271 274 275 278 281 284 288 290 290 291 290 289 289 288 288 287 286 285 284 283 282 281 278 270 262 258 259 260 257 251 247 244 240 236 232 227 226 226 221 218 220 225 228 229 230 232 233 233 233 233
226 226 226 225 224 222 221 219 218 219 221 223 225 226 227 227 227 226 224 224 228 231 233 233 234 236 238 241 244 248 252 254 257 261 264 268 271 272 274 277 280 283 287 289 290 290 290 290 289 289 288 286 285 285 284 284 284 283 281 277 268 260 257 257 257 253 248 244 240 237 232 228 225 222 220 218 220 224 226 229 230 230 232 235 239 240
225 224 223 224 224 223 221 219 218 220 223 225 226 227 228 229 229 227 224 224 228 231 232 232 233 236 238 241 244 248 251 254 257 260 264 267 270 272 274 276 279 283 286 288 288 289 289 288 288 287 286 285 285 285 285 286 286 284 283 281 278 270 260 255 255 254 251 245 241 237 234 230 226 224 220 218 220 224 225 229 234 238 238 238 239 239
222 222 221 222 223 222 220 219 218 220 222 224 225 225 226 227 226 223 221 222 227 228 228 229 231 234 237 240 243 247 251 254 257 260 264 267 269 271 273 276 279 282 284 286 287 287 287 287 286 287 286 286 286 286 287 287 286 285 283 282 281 276 267 259 256 254 252 248 242 239 235 231 228 227 225 222 221 224 225 226 230 239 244 242 241 238
215 215 216 218 219 219 218 218 219 220 221 222 222 223 224 224 223 220 218 220 224 225 225 227 230 233 237 240 243 247 250 254 258 261 265 267 268 269 272 275 278 280 283 285 286 286 286 286 286 287 287 287 287 288 288 287 286 285 285 283 281 277 271 266 260 254 252 248 244 240 235 232 229 227 227 227 224 223 225 226 225 229 236 240 242 241
210 211 212 214 215 216 216 217 218 220 221 222 222 222 223 223 221 219 217 220 223 224 225 228 231 234 238 241 244 247 250 253 257 262 266 266 267 269 271 274 276 279 282 284 284 284 285 285 286 286 286 287 289 290 289 288 288 287 286 284 281 277 273 269 262 254 250 246 244 240 234 231 230 227 226 228 228 224 223 226 226 225 229 234 239 241
208 209 210 211 213 215 215 216 218 219 219 220 221 221 222 221 220 218 218 220 223 225 226 229 232 235 239 241 244 246 249 253 257 262 264 265 267 269 271 273 275 278 280 281 282 283 284 284 285 286 287 288 290 290 290 291 291 290 288 285 282 277 272 268 262 255 248 244 242 239 234 231 229 227 225 228 231 229 226 226 228 227 228 233 235 235
207 208 208 209 211 213 214 216 218 219 219 219 219 219 220 219 218 218 218 221 224 225 226 229 233 236 238 240 242 245 249 254 258 260 262 264 266 268 270 272 274 276 278 279 281 283 284 285 286 287 288 289 290 290 292 293 294 293 290 287 284 278 271 265 260 254 246 241 240 237 233 231 229 227 226 229 233 234 232 231 231 230 230 233 231 230
207 208 209 209 210 212 214 215 217 218 219 220 220 220 220 219 218 218 218 221 223 224 225 228 231 234 236 239 241 244 249 254 257 258 261 264 266 269 270 271 272 275 277 279 282 284 286 287 288 289 290 290 291 292 294 295 296 295 292 289 285 278 270 264 257 250 242 237 235 232 229 229 229 227 226 230 233 235 237 237 236 236 235 234 232 229
208 208 210 210 211 212 214 215 216 218 219 220 220 221 221 221 220 220 220 221 223 224 225 228 231 233 235 238 242 245 250 253 255 258 262 265 266 267 269 270 272 275 278 281 284 286 288 289 289 290 291 291 292 294 296 297 297 297 295 292 287 278 269 262 253 244 237 232 231 229 225 224 226 226 224 227 229 231 234 237 238 239 239 238 236 233
210 210 210 211 211 212 213 215 216 218 219 219 219 219 218 218 218 220 221 222 223 224 225 228 231 235 237 239 243 246 249 252 254 258 261 262 264 266 268 270 272 275 279 283 286 287 288 289 290 290 291 292 294 296 296 297 299 298 296 294 288 279 267 258 247 236 230 228 227 225 222 220 223 223 222 224 226 227 230 233 235 237 239 239 240 240
213 213 212 212 212 212 213 215 217 219 219 219 219 218 218 218 217 218 220 221 222 223 225 228 232 236 239 240 242 245 247 250 253 256 258 260 263 266 268 270 273 276 280 283 286 287 288 289 290 291 292 293 295 296 297 298 300 299 297 294 289 278 264 252 240 228 224 222 221 220 219 218 219 219 219 221 224 226 229 231 231 231 232 234 236 239
213 214 214 213 213 213 214 216 218 219 220 220 220 219 219 219 219 220 221 222 223 224 226 229 233 236 239 241 242 244 246 250 252 255 258 260 263 265 267 270 273 276 280 283 285 286 288 289 291 292 292 294 296 296 297 299 300 299 296 293 286 274 260 246 231 222 218 215 214 215 215 215 215 216 218 221 224 226 228 230 229 227 227 229 232 234
209 210 212 213 214 216 217 219 220 221 222 221 221 221 220 220 221 222 223 224 224 225 227 230 233 236 239 242 244 245 247 250 252 254 257 259 261 264 267 271 273 276 279 282 284 286 288 290 292 292 294 295 296 295 297 299 300 298 294 290 281 268 256 239 224 216 211 206 205 209 211 212 214 216 219 222 224 225 227 229 230 228 227 229 233 235
206 207 209 211 214 216 219 221 223 223 223 222 222 222 222 222 223 223 224 223 224 225 227 230 233 236 239 241 244 246 247 249 251 253 255 258 261 264 268 271 273 276 278 281 284 286 289 290 291 293 294 295 295 295 297 299 299 297 291 286 276 261 251 233 217 210 206 201 202 207 210 210 213 217 220 223 225 226 227 229 231 231 230 230 231 233
207 208 209 211 214 215 216 218 220 220 221 221 221 222 223 223 224 225 224 224 225 226 228 230 233 235 238 241 243 246 248 249 251 253 255 258 261 265 268 271 273 275 277 280 283 286 288 289 291 293 294 294 293 295 296 297 298 296 288 282 272 253 244 229 211 205 203 201 202 206 209 210 213 217 219 222 225 226 227 227 228 229 229 230 230 231
208 210 211 212 213 214 215 216 217 218 218 219 220 221 222 223 224 224 225 225 226 227 229 231 233 235 238 240 243 245 247 249 251 253 256 259 262 265 268 271 272 274 277 280 283 285 287 289 290 292 292 292 292 294 295 296 297 294 285 279 270 251 238 225 210 204 203 203 204 206 208 210 213 216 218 220 222 225 226 226 226 227 228 231 233 232
211 213 214 214 215 215 215 216 216 217 218 218 219 221 222 223 223 224 225 226 227 229 230 231 233 236 238 240 243 245 247 249 252 254 257 259 262 265 268 270 272 274 277 280 282 285 287 288 290 291 291 290 291 293 294 296 296 291 281 275 270 254 238 225 213 207 205 205 206 207 209 211 213 216 219 220 221 224 225 226 228 229 229 232 236 237
212 214 216 217 217 216 216 216 216 217 217 218 219 221 223 223 224 225 226 227 228 230 231 232 234 236 238 240 243 245 248 250 252 255 257 260 263 266 268 270 272 274 277 279 281 284 287 288 289 290 289 289 290 291 293 295 294 287 276 271 269 259 244 231 218 210 208 207 208 208 209 211 213 216 218 220 221 223 224 226 229 229 227 229 232 234
212 215 217 219 218 217 217 217 217 217 218 219 219 221 223 224 225 225 226 227 229 230 232 233 234 236 238 240 242 245 248 250 253 256 259 261 264 266 268 270 272 274 276 278 281 284 286 288 288 288 287 287 288 290 292 293 292 283 271 265 265 261 252 241 228 217 213 212 212 212 212 212 213 215 217 219 221 223 224 226 227 227 226 227 228 229
214 215 216 217 217 216 216 217 217 218 218 219 220 221 223 224 225 226 226 227 229 230 232 233 235 236 239 241 243 245 248 251 254 257 259 262 264 266 268 270 272 274 275 277 281 283 285 287 287 286 285 285 286 288 289 290 290 282 269 261 260 260 256 250 241 228 220 218 218 218 217 217 217 218 219 219 220 221 222 224 225 226 228 228 229 232
215 215 215 215 216 216 216 217 217 218 219 220 221 222 224 225 226 227 227 228 229 231 232 233 235 237 239 242 245 247 250 252 254 257 259 262 264 266 268 270 271 273 274 277 280 282 284 284 284 283 284 283 283 285 286 287 287 281 268 259 255 255 256 254 250 242 230 223 222 222 221 221 221 221 221 221 220 220 220 221 225 229 233 235 237 239
214 214 215 216 217 217 217 217 218 219 220 222 223 224 226 227 228 229 230 231 232 233 235 236 238 240 242 244 246 248 251 253 255 257 260 262 264 266 268 270 271 272 274 276 279 281 282 282 280 281 281 280 280 281 283 284 284 279 268 258 252 250 250 251 251 250 242 231 225 223 222 221 222 223 224 224 224 223 222 223 226 231 236 240 241 242
214 215 216 217 219 219 219 220 221 222 223 225 226 227 228 229 231 232 233 234 235 236 238 239 241 242 243 245 247 249 252 254 256 258 261 263 265 266 268 269 270 272 273 276 278 280 281 279 279 280 280 277 277 279 280 281 281 278 270 258 250 247 244 244 246 248 248 242 232 228 225 223 222 224 225 226 227 227 228 229 230 231 234 237 239 240
215 216 216 218 219 220 221 222 223 224 226 227 228 229 230 231 232 233 234 235 236 237 239 240 241 243 245 247 249 251 253 255 257 259 261 263 265 266 267 269 270 271 273 275 277 279 279 278 278 280 280 276 276 277 277 278 278 276 271 261 251 245 243 242 242 243 245 246 243 236 231 228 226 226 225 225 226 227 229 230 231 231 232 235 237 238
217 217 217 218 219 220 222 223 224 225 227 229 230 230 231 232 233 234 235 237 238 239 240 242 243 245 247 249 251 253 254 256 258 260 261 263 264 266 267 268 269 270 273 275 277 278 278 276 277 280 279 274 273 275 274 274 276 274 271 265 255 246 242 240 240 239 240 242 244 244 240 235 232 231 231 230 228 228 228 228 229 230 230 232 236 238
218 219 219 220 221 222 223 224 225 226 227 229 230 231 232 233 234 235 237 238 240 241 243 244 245 246 248 250 252 254 255 257 259 261 262 263 265 266 268 268 269 270 273 276 278 278 277 276 277 280 278 270 268 270 270 269 272 273 271 268 260 250 243 240 239 238 237 237 238 241 243 242 238 235 234 235 234 233 231 230 230 230 231 232 235 237
220 221 221 222 223 224 224 225 226 227 229 230 231 232 233 234 235 236 237 238 240 241 243 244 246 248 249 251 253 255 257 258 260 261 263 264 265 266 267 268 269 271 274 276 278 277 277 276 277 279 276 268 263 265 265 265 266 269 269 267 262 253 245 240 239 238 237 236 235 235 238 241 242 240 237 235 235 235 234 233 233 234 234 235 235 235
220 221 222 223 224 225 225 226 227 228 229 231 233 234 235 236 237 237 238 239 240 242 244 245 247 249 251 253 254 256 257 259 260 262 263 264 265 266 267 269 271 273 275 276 276 276 276 275 276 277 274 267 262 262 262 262 262 264 266 265 262 256 249 243 240 238 237 236 235 234 234 235 239 241 240 238 235 234 234 233 233 234 234 234 234 233
222 223 224 225 225 226 227 228 228 228 230 231 233 234 235 236 237 239 239 240 242 244 246 247 248 250 252 254 255 256 258 259 260 262 263 264 265 267 268 270 272 273 274 274 273 273 274 275 275 276 273 266 261 260 261 261 260 260 261 263 262 259 253 247 243 240 237 236 236 235 234 233 234 236 239 239 238 235 233 231 230 230 230 230 230 231
225 226 227 227 228 229 229 230 231 231 232 233 234 235 236 237 238 240 241 242 243 245 247 248 249 251 253 254 255 257 258 259 260 261 262 264 265 267 269 270 271 271 271 271 271 272 273 274 274 273 270 265 261 260 259 259 259 259 258 259 260 259 256 252 248 245 241 238 237 235 235 234 234 234 235 237 238 237 234 232 230 227 227 228 228 229
226 227 228 229 230 231 232 232 233 234 234 235 236 237 239 240 242 243 244 244 245 246 248 249 250 251 253 255 256 257 258 260 261 261 263 264 266 267 268 269 270 270 270 270 271 271 272 272 272 270 266 262 260 259 258 259 259 259 257 257 257 258 257 255 253 250 247 243 240 238 236 235 235 234 233 233 235 236 235 234 232 229 228 228 228 229
230 230 231 232 232 233 234 235 236 237 238 239 240 240 241 242 244 245 246 246 247 248 249 250 251 252 253 254 256 257 258 260 261 263 264 266 267 267 268 269 269 269 269 270 270 270 270 270 268 266 263 261 259 258 258 258 258 258 257 256 255 255 255 255 255 254 251 248 245 242 239 237 236 235 235 233 233 234 234 234 234 233 231 230 230 230
234 235 235 236 236 237 238 238 239 240 241 242 243 244 244 244 245 246 247 248 249 250 250 251 252 253 254 255 257 258 259 261 262 264 265 265 266 266 267 267 268 269 269 269 269 269 268 267 266 265 263 261 259 257 257 257 257 258 257 256 255 254 254 254 254 254 253 252 250 247 244 241 238 237 237 236 234 233 233 233 233 234 234 233 232 232
238 239 240 240 241 241 242 242 243 243 244 244 245 246 246 247 248 248 249 250 251 252 253 254 255 256 257 258 259 259 261 262 262 263 263 264 264 264 265 266 266 267 268 268 267 267 267 266 266 265 263 262 260 258 256 256 256 257 257 256 255 255 255 254 253 253 253 253 252 250 248 245 242 239 238 238 237 235 234 233 232 233 235 235 234 233
238 239 240 241 242 243 244 245 245 246 247 247 247 248 249 249 250 251 251 252 253 254 255 255 256 257 257 258 259 259 260 261 262 262 262 262 262 263 263 264 264 265 266 266 267 267 267 267 266 266 265 263 262 260 258 256 256 256 256 256 255 255 255 255 254 253 252 252 252 252 251 249 246 243 240 239 239 238 237 235 233 232 233 236 236 236
238 238 238 239 240 242 243 244 245 245 246 247 247 248 248 249 249 250 251 251 252 253 254 254 255 255 256 257 258 259 260 260 261 261 261 261 261 261 262 263 264 265 266 267 267 267 267 267 266 265 265 264 263 261 260 258 257 256 256 256 256 255 255 255 255 254 253 253 252 252 251 250 249 247 244 241 239 239 239 238 236 234 232 234 236 237
239 239 239 239 240 240 241 242 243 244 245 245 246 247 247 248 248 249 249 250 250 251 252 253 254 255 256 256 257 258 259 260 260 261 261 261 262 262 263 264 265 266 267 267 268 268 268 267 267 266 265 264 264 263 261 260 259 259 258 258 258 257 257 256 256 256 255 254 253 253 252 251 250 249 247 244 241 239 239 240 239 237 234 233 234 236
240 240 240 240 240 240 241 241 242 243 243 244 245 246 246 247 247 248 249 249 250 251 252 253 254 255 256 256 257 258 258 259 260 261 262 263 263 264 265 266 266 267 267 268 268 268 268 268 268 268 268 267 266 266 265 264 263 262 261 260 260 259 259 258 258 258 257 257 256 255 254 253 251 250 249 247 244 241 239 239 240 239 237 235 234 235
241 241 241 241 241 241 241 241 242 242 243 244 244 245 246 247 247 248 249 250 250 251 251 252 254 255 256 257 257 258 259 259 260 261 262 263 264 264 265 265 266 267 267 268 269 269 269 270 270 270 270 270 269 269 268 268 267 266 264 263 262 262 261 261 260 259 259 258 257 256 256 255 254 252 251 249 247 245 241 239 240 240 239 237 236 235
Height
10597 10604 10611 10616 10619 10621 10624 10628 10632 10634 10637 10641 10646 10651 10655 10658 10661 10666 10674 10679 10681 10682 10682 10686 10694 10697 10699 10701 10704 10706 10706 10707 10707 10706 10707 10708 10709 10710 10711 10713 10713 10712 10713 10713 10712 10712 10710 10707 10706 10707 10708 10709 10709 10709 10708 10709 10710 10710 10711 10711 10712 10712 10713 10715 10718 10720 10722 10723 10725 10728 10733 10736 10737 10739 10740 10740 10740 10740 10742 10745 10746 10745 10745 10745 10746 10746
10590 10599 10605 10607 10609 10612 10617 10621 10624 10628 10632 10635 10640 10645 10649 10653 10656 10662 10669 10674 10677 10677 10679 10684 10689 10691 10693 10697 10699 10701 10701 10701 10701 10701 10701 10703 10704 10705 10707 10708 10708 10708 10707 10707 10706 10706 10705 10702 10700 10701 10702 10702 10702 10702 10702 10703 10703 10704 10705 10706 10706 10706 10707 10708 10711 10714 10716 10718 10721 10725 10730 10732 10734 10735 10736 10737 10737 10736 10738 10740 10741 10741 10741 10742 10743 10742
10586 10593 10596 10597 10601 10606 10611 10614 10618 10623 10626 10628 10633 10639 10644 10647 10651 10658 10665 10670 10672 10672 10676 10680 10683 10685 10689 10692 10694 10696 10696 10696 10696 10696 10696 10697 10699 10701 10703 10703 10703 10703 10702 10701 10700 10700 10700 10697 10694 10695 10696 10696 10695 10696 10696 10697 10698 10699 10700 10700 10700 10700 10701 10702 10705 10708 10710 10712 10717 10723 10727 10729 10730 10731 10732 10733 10733 10733 10734 10735 10736 10737 10738 10738 10740 10738
10579 10584 10586 10589 10594 10599 10603 10607 10612 10617 10620 10623 10629 10634 10639 10641 10646 10653 10661 10665 10667 10668 10672 10675 10677 10680 10683 10686 10689 10691 10691 10691 10691 10691 10691 10692 10695 10696 10697 10698 10698 10698 10697 10696 10695 10695 10694 10692 10689 10689 10690 10691 10691 10690 10690 10691 10692 10693 10694 10694 10695 10695 10695 10697 10699 10701 10704 10707 10712 10719 10722 10723 10725 10727 10728 10729 10729 10730 10730 10730 10732 10734 10735 10735 10736 10735
10570 10573 10575 10580 10586 10591 10595 10601 10607 10612 10615 10619 10625 10630 10632 10635 10641 10648 10656 10661 10663 10664 10667 10669 10672 10675 10679 10682 10685 10685 10686 10686 10686 10687 10687 10688 10690 10691 10692 10693 10693 10692 10692 10690 10690 10689 10687 10686 10684 10684 10685 10686 10687 10686 10685 10685 10685 10687 10687 10688 10689 10689 10689 10691 10693 10695 10697 10701 10706 10712 10715 10717 10720 10723 10725 10726 10726 10727 10727 10728 10730 10731 10732 10732 10732 10732
10561 10564 10569 10574 10578 10583 10589 10596 10602 10606 10610 10615 10621 10624 10625 10629 10636 10644 10651 10655 10657 10659 10662 10664 10667 10671 10675 10677 10679 10680 10680 10681 10681 10683 10684 10684 10685 10685 10687 10688 10687 10687 10686 10685 10684 10683 10681 10679 10679 10680 10680 10681 10682 10681 10680 10678 10678 10679 10680 10681 10682 10683 10684 10685 10686 10689 10691 10695 10700 10705 10709 10713 10717 10720 10722 10723 10723 10724 10725 10726 10728 10728 10728 10729 10729 10728
10554 10558 10563 10568 10571 10576 10583 10590 10596 10600 10605 10611 10615 10616 10618 10625 10632 10639 10645 10649 10651 10654 10657 10660 10663 10667 10670 10671 10673 10674 10675 10675 10677 10679 10680 10680 10680 10680 10681 10682 10682 10681 10680 10680 10679 10677 10675 10674 10674 10675 10675 10676 10675 10674 10673 10672 10673 10674 10674 10675 10676 10677 10678 10679 10680 10683 10685 10689 10694 10698 10703 10708 10712 10715 10718 10720 10720 10721 10723 10724 10724 10725 10725 10725 10725 10725
10549 10552 10556 10560 10565 10572 10580 10586 10590 10595 10600 10606 10608 10609 10613 10620 10626 10633 10639 10642 10645 10649 10652 10656 10659 10663 10665 10665 10667 10669 10669 10671 10674 10675 10676 10676 10676 10676 10676 10676 10676 10676 10675 10674 10674 10672 10670 10669 10670 10670 10670 10670 10669 10668 10667 10668 10669 10669 10669 10670 10670 10672 10673 10673 10674 10676 10679 10683 10687 10692 10696 10702 10706 10709 10712 10716 10717 10719 10721 10720 10720 10721 10721 10721 10722 10722
10542 10544 10548 10554 10560 10568 10575 10580 10584 10588 10595 10599 10599 10602 10608 10615 10622 10629 10633 10635 10639 10644 10647 10652 10655 10658 10660 10660 10662 10663 10664 10667 10670 10671 10672 10671 10671 10671 10671 10671 10670 10670 10670 10669 10669 10668 10666 10665 10665 10666 10665 10664 10663 10662 10663 10664 10664 10664 10664 10663 10664 10665 10667 10668 10669 10670 10673 10677 10681 10685 10690 10695 10700 10703 10707 10711 10713 10716 10718 10714 10714 10715 10716 10717 10717 10717
10531 10534 10539 10546 10555 10562 10567 10571 10576 10582 10588 10591 10592 10597 10604 10611 10618 10623 10627 10630 10634 10638 10643 10648 10652 10654 10655 10656 10656 10658 10660 10664 10666 10667 10667 10667 10667 10667 10667 10666 10666 10665 10665 10664 10664 10663 10663 10662 10661 10661 10659 10658 10658 10657 10658 10659 10659 10658 10657 10657 10658 10659 10660 10662 10663 10665 10667 10670 10674 10678 10683 10689 10694 10698 10702 10707 10710 10713 10711 10708 10708 10710 10710 10711 10712 10712
10525 10529 10535 10544 10551 10555 10558 10563 10570 10576 10581 10583 10586 10592 10600 10606 10613 10618 10621 10624 10629 10634 10639 10644 10647 10649 10650 10651 10651 10654 10657 10659 10661 10661 10662 10662 10662 10663 10662 10662 10661 10661 10660 10659 10659 10659 10659 10658 10657 10655 10654 10653 10652 10652 10652 10652 10652 10652 10651 10651 10652 10654 10655 10656 10658 10660 10662 10664 10668 10672 10677 10683 10687 10690 10695 10700 10703 10703 10701 10701 10704 10705 10706 10706 10706 10707
10523 10528 10536 10543 10547 10550 10554 10561 10567 10572 10575 10578 10582 10589 10596 10602 10608 10613 10617 10620 10625 10630 10635 10640 10642 10643 10645 10646 10647 10650 10652 10654 10655 10656 10656 10657 10658 10658 10658 10658 10657 10656 10655 10654 10653 10653 10653 10653 10652 10650 10649 10648 10647 10646 10646 10646 10646 10645 10645 10646 10647 10649 10650 10651 10652 10654 10656 10658 10661 10665 10669 10673 10676 10681 10686 10690 10691 10691 10692 10696 10698 10700 10702 10704 10704 10704
10519 10526 10533 10538 10542 10546 10552 10558 10563 10568 10572 10575 10580 10587 10593 10599 10605 10611 10615 10618 10623 10628 10631 10635 10637 10638 10639 10642 10644 10645 10647 10648 10649 10650 10651 10652 10653 10653 10653 10653 10652 10651 10650 10649 10648 10648 10648 10647 10646 10645 10644 10643 10642 10641 10641 10640 10640 10640 10640 10640 10641 10642 10644 10645 10646 10647 10649 10651 10654 10656 10660 10662 10665 10670 10674 10677 10678 10681 10685 10689 10691 10694 10698 10699 10700 10702
10514 10521 10528 10533 10538 10543 10549 10555 10561 10566 10570 10574 10579 10585 10591 10597 10603 10609 10613 10617 10621 10624 10627 10629 10632 10633 10634 10637 10639 10640 10641 10642 10643 10644 10646 10647 10648 10647 10648 10647 10646 10646 10645 10644 10643 10643 10643 10642 10641 10640 10639 10638 10637 10637 10636 10636 10635 10634 10633 10634 10634 10635 10636 10637 10639 10640 10642 10644 10646 10649 10652 10656 10659 10662 10664 10666 10668 10672 10677 10682 10684 10687 10691 10693 10694 10696
10510 10519 10525 10530 10535 10541 10546 10552 10556 10559 10563 10567 10573 10580 10587 10593 10598 10603 10608 10612 10615 10617 10619 10622 10624 10626 10629 10632 10635 10635 10636 10636 10637 10639 10641 10642 10642 10642 10643 10642 10641 10640 10640 10639 10639 10638 10637 10637 10635 10635 10634 10633 10633 10632 10632 10631 10630 10628 10627 10627 10627 10628 10628 10629 10631 10633 10636 10638 10640 10642 10646 10651 10654 10656 10659 10661 10664 10667 10671 10675 10678 10680 10683 10684 10686 10689
10506 10513 10518 10522 10528 10535 10540 10545 10548 10551 10556 10562 10568 10576 10582 10587 10591 10595 10600 10604 10606 10608 10611 10615 10618 10622 10625 10627 10629 10631 10631 10631 10631 10633 10635 10637 10637 10637 10638 10637 10636 10635 10634 10634 10633 10633 10632 10631 10630 10629 10628 10628 10628 10627 10627 10626 10624 10623 10621 10621 10620 10620 10621 10622 10624 10626 10628 10631 10633 10635 10639 10643 10647 10650 10653 10658 10661 10664 10666 10667 10669 10672 10673 10675 10678 10681
10502 10506 10510 10515 10522 10528 10533 10537 10542 10547 10553 10559 10567 10573 10578 10580 10584 10589 10594 10598 10600 10602 10607 10611 10615 10619 10621 10622 10624 10625 10625 10626 10626 10627 10629 10630 10630 10631 10632 10632 10631 10629 10629 10629 10628 10627 10626 10625 10625 10624 10624 10623 10623 10622 10621 10619 10618 10617 10615 10614 10614 10613 10613 10613 10615 10617 10620 10623 10625 10627 10631 10635 10638 10642 10646 10651 10655 10657 10659 10660 10661 10663 10666 10668 10672 10675
10496 10500 10504 10510 10516 10521 10527 10533 10537 10543 10550 10557 10563 10568 10570 10573 10579 10584 10589 10593 10596 10600 10604 10609 10612 10615 10617 10617 10619 10619 10620 10621 10622 10623 10624 10623 10624 10625 10626 10626 10625 10625 10625 10624 10623 10622 10622 10621 10620 10620 10619 10618 10618 10616 10614 10612 10611 10610 10609 10608 10607 10606 10605 10606 10607 10609 10612 10615 10617 10621 10624 10627 10630 10634 10639 10644 10647 10650 10652 10653 10655 10658 10662 10665 10668 10670
10489 10493 10499 10504 10510 10517 10523 10529 10535 10541 10547 10552 10556 10558 10561 10568 10575 10579 10585 10590 10593 10597 10602 10605 10608 10611 10611 10611 10613 10614 10615 10615 10617 10619 10618 10618 10618 10619 10620 10621 10620 10620 10620 10619 10619 10618 10617 10617 10616 10615 10614 10613 10612 10610 10608 10606 10604 10603 10602 10602 10601 10600 10598 10599 10599 10601 10605 10608 10611 10614 10617 10620 10624 10629 10634 10638 10640 10644 10646 10647 10651 10656 10660 10662 10664 10664
10485 10490 10496 10501 10507 10514 10520 10526 10532 10538 10542 10546 10550 10554 10559 10565 10571 10575 10580 10585 10589 10593 10597 10600 10604 10606 10605 10605 10607 10609 10610 10611 10612 10613 10613 10613 10613 10614 10615 10615 10614 10615 10615 10614 10614 10613 10613 10613 10612 10611 10609 10607 10606 10604 10602 10600 10598 10597 10596 10595 10595 10593 10592 10592 10593 10595 10599 10602 10605 10608 10611 10615 10620 10624 10628 10631 10634 10638 10640 10642 10647 10652 10655 10657 10657 10657
10482 10488 10494 10499 10506 10512 10519 10525 10529 10533 10537 10542 10548 10553 10559 10564 10569 10572 10577 10582 10586 10589 10593 10596 10598 10598 10598 10600 10603 10605 10606 10607 10607 10608 10609 10608 10609 10609 10609 10609 10609 10610 10610 10610 10609 10609 10608 10608 10607 10605 10603 10601 10599 10597 10595 10594 10592 10591 10590 10590 10589 10588 10587 10586 10587 10589 10593 10596 10599 10602 10605 10610 10614 10619 10623 10626 10629 10632 10635 10638 10643 10647 10649 10650 10650 10652
10481 10487 10492 10498 10505 10511 10517 10521 10524 10527 10532 10538 10543 10547 10552 10558 10563 10567 10573 10578 10582 10585 10588 10591 10591 10590 10593 10597 10598 10600 10602 10602 10602 10604 10604 10603 10603 10604 10604 10604 10605 10605 10606 10606 10605 10604 10604 10602 10601 10600 10598 10595 10593 10590 10589 10588 10587 10585 10584 10584 10583 10582 10581 10581 10582 10585 10588 10592 10595 10597 10601 10605 10610 10614 10618 10621 10625 10628 10631 10635 10638 10642 10643 10644 10645 10647
10480 10485 10491 10497 10503 10508 10513 10516 10519 10523 10528 10533 10537 10542 10547 10552 10557 10562 10568 10573 10577 10580 10584 10586 10586 10585 10588 10591 10593 10595 10596 10597 10598 10599 10598 10598 10599 10599 10599 10600 10601 10601 10602 10602 10601 10600 10598 10597 10596 10594 10592 10590 10587 10584 10583 10583 10583 10580 10579 10579 10578 10577 10577 10576 10578 10581 10584 10588 10591 10594 10597 10602 10606 10610 10613 10616 10620 10623 10625 10629 10632 10635 10637 10639 10640 10642
10478 10484 10490 10496 10500 10504 10508 10511 10515 10519 10524 10529 10535 10540 10545 10550 10555 10560 10565 10569 10574 10577 10580 10581 10581 10581 10582 10585 10588 10590 10591 10592 10594 10593 10592 10593 10594 10594 10595 10596 10597 10597 10598 10597 10596 10594 10593 10591 10590 10588 10587 10584 10582 10579 10578 10578 10578 10576 10574 10574 10573 10572 10572 10572 10574 10577 10580 10584 10587 10590 10594 10598 10602 10605 10608 10611 10614 10616 10619 10623 10626 10629 10632 10634 10636 10638
10476 10482 10488 10493 10497 10501 10505 10510 10514 10518 10523 10528 10532 10537 10542 10547 10552 10557 10562 10566 10570 10573 10576 10577 10576 10576 10577 10579 10582 10584 10586 10588 10588 10587 10587 10588 10589 10590 10591 10592 10593 10594 10593 10592 10591 10589 10588 10586 10584 10582 10581 10579 10577 10575 10573 10572 10573 10571 10570 10570 10569 10568 10568 10569 10570 10573 10577 10581 10584 10587 10590 10594 10596 10599 10602 10605 10608 10611 10615 10618 10621 10624 10627 10629 10632 10634
10473 10479 10484 10489 10494 10499 10504 10509 10513 10517 10521 10525 10529 10533 10538 10543 10548 10552 10557 10561 10565 10567 10569 10570 10570 10570 10572 10573 10575 10578 10580 10582 10581 10582 10582 10583 10584 10586 10587 10588 10589 10589 10588 10587 10585 10584 10583 10581 10579 10577 10576 10574 10572 10570 10568 10567 10567 10567 10566 10566 10566 10565 10564 10565 10568 10571 10574 10578 10581 10583 10586 10589 10592 10594 10597 10601 10604 10607 10611 10614 10616 10619 10621 10624 10626 10627
10471 10476 10480 10485 10490 10495 10500 10504 10507 10511 10515 10520 10524 10529 10533 10538 10542 10547 10551 10555 10558 10560 10563 10564 10564 10565 10567 10568 10569 10571 10573 10574 10575 10576 10577 10578 10580 10581 10583 10584 10584 10584 10583 10582 10580 10579 10577 10575 10574 10572 10571 10569 10567 10565 10564 10563 10562 10562 10561 10561 10562 10561 10561 10562 10565 10568 10571 10574 10577 10580 10582 10585 10587 10590 10593 10596 10599 10602 10605 10608 10611 10613 10615 10617 10619 10620
10468 10473 10478 10482 10486 10490 10494 10497 10501 10505 10510 10514 10519 10523 10527 10532 10536 10540 10544 10548 10551 10554 10556 10557 10558 10560 10561 10562 10563 10564 10566 10568 10569 10570 10572 10574 10575 10576 10577 10578 10578 10578 10577 10576 10575 10574 10572 10570 10569 10567 10566 10564 10562 10561 10559 10558 10557 10557 10557 10557 10558 10558 10558 10559 10561 10565 10568 10570 10573 10575 10578 10581 10583 10586 10589 10592 10594 10597 10600 10603 10605 10607 10610 10611 10612 10614
10465 10470 10474 10478 10482 10486 10490 10493 10497 10501 10506 10510 10514 10518 10522 10526 10530 10534 10538 10542 10545 10548 10549 10551 10553 10554 10555 10557 10557 10559 10560 10562 10563 10565 10567 10569 10570 10570 10571 10571 10572 10572 10572 10571 10570 10568 10567 10565 10564 10563 10561 10560 10558 10556 10555 10554 10553 10552 10552 10553 10554 10554 10555 10556 10558 10561 10564 10567 10569 10571 10574 10576 10579 10582 10585 10588 10590 10592 10595 10598 10600 10603 10605 10606 10608 10610
10462 10466 10470 10474 10478 10482 10485 10489 10493 10497 10501 10506 10509 10513 10517 10521 10525 10529 10533 10536 10539 10541 10543 10545 10547 10548 10550 10551 10552 10553 10555 10556 10557 10559 10561 10563 10564 10564 10564 10564 10566 10567 10566 10565 10565 10563 10562 10561 10560 10558 10557 10555 10554 10552 10550 10549 10548 10548 10548 10548 10549 10551 10552 10553 10555 10557 10560 10562 10565 10567 10570 10572 10575 10577 10580 10583 10585 10588 10590 10593 10596 10598 10600 10602 10603 10605
10458 10462 10467 10470 10474 10478 10482 10485 10489 10493 10497 10501 10504 10508 10512 10516 10519 10523 10527 10530 10533 10535 10537 10539 10541 10542 10543 10545 10546 10548 10549 10550 10552 10554 10556 10557 10558 10558 10558 10558 10559 10561 10560 10559 10559 10559 10557 10556 10555 10554 10552 10550 10549 10547 10546 10545 10544 10544 10544 10544 10545 10547 10548 10549 10551 10553 10556 10558 10560 10562 10565 10568 10570 10573 10575 10578 10580 10583 10586 10589 10591 10593 10594 10596 10598 10599
10454 10458 10462 10466 10469 10473 10477 10481 10485 10488 10492 10496 10500 10504 10508 10511 10514 10517 10521 10524 10526 10528 10530 10533 10535 10536 10537 10538 10540 10543 10544 10546 10547 10549 10550 10550 10551 10552 10552 10552 10554 10555 10555 10554 10554 10554 10553 10551 10550 10549 10547 10546 10544 10543 10541 10540 10540 10539 10540 10540 10541 10543 10544 10545 10547 10549 10551 10553 10555 10557 10560 10563 10565 10568 10570 10573 10575 10578 10581 10584 10586 10587 10589 10590 10592 10593
10450 10455 10459 10462 10465 10469 10473 10477 10480 10484 10487 10492 10496 10500 10503 10506 10508 10512 10515 10518 10520 10522 10524 10526 10528 10530 10532 10534 10536 10538 10539 10541 10542 10543 10544 10544 10545 10546 10546 10547 10548 10549 10549 10548 10548 10548 10548 10546 10545 10544 10542 10541 10540 10538 10537 10536 10535 10535 10536 10536 10537 10539 10540 10541 10542 10544 10546 10548 10549 10551 10554 10557 10560 10562 10565 10568 10570 10573 10576 10579 10581 10582 10583 10584 10586 10589
10449 10453 10457 10460 10463 10467 10471 10474 10477 10481 10486 10490 10493 10496 10498 10501 10504 10507 10510 10513 10515 10517 10519 10521 10523 10526 10528 10530 10531 10532 10533 10535 10536 10538 10539 10539 10539 10540 10541 10541 10542 10542 10542 10543 10542 10542 10542 10541 10540 10539 10537 10536 10535 10533 10533 10532 10531 10531 10532 10532 10533 10534 10536 10536 10538 10539 10541 10543 10544 10546 10548 10551 10554 10556 10559 10562 10565 10568 10571 10573 10576 10577 10578 10579 10581 10583
10446 10451 10454 10458 10461 10465 10469 10472 10476 10481 10484 10486 10488 10492 10494 10497 10499 10502 10505 10508 10511 10513 10514 10517 10519 10521 10523 10524 10526 10527 10528 10529 10531 10532 10533 10533 10533 10534 10534 10536 10537 10536 10536 10536 10536 10536 10535 10534 10534 10533 10531 10530 10529 10529 10528 10527 10526 10526 10527 10527 10528 10529 10531 10532 10533 10534 10535 10537 10539 10541 10543 10546 10548 10551 10553 10556 10559 10562 10565 10568 10570 10572 10574 10575 10576 10577
10444 10447 10451 10455 10458 10462 10466 10470 10474 10477 10479 10481 10484 10487 10489 10491 10493 10496 10499 10502 10505 10508 10510 10512 10514 10516 10517 10518 10520 10521 10522 10523 10524 10526 10526 10527 10527 10527 10528 10530 10530 10529 10529 10529 10529 10529 10529 10528 10527 10527 10525 10524 10524 10524 10523 10522 10522 10521 10521 10522 10523 10524 10525 10527 10528 10529 10531 10532 10534 10536 10538 10540 10543 10545 10547 10550 10553 10555 10558 10561 10563 10566 10568 10570 10571 10572
10440 10444 10448 10451 10455 10458 10462 10465 10468 10472 10474 10476 10478 10480 10482 10485 10488 10492 10494 10498 10501 10503 10505 10507 10509 10511 10512 10513 10514 10515 10516 10517 10518 10519 10520 10520 10520 10521 10522 10523 10523 10522 10522 10522 10523 10522 10522 10522 10522 10521 10520 10519 10518 10518 10518 10517 10516 10516 10516 10516 10517 10518 10520 10521 10522 10524 10526 10528 10529 10530 10532 10534 10537 10540 10541 10543 10546 10549 10551 10554 10556 10559 10562 10564 10565 10566
10437 10441 10445 10448 10451 10455 10458 10461 10464 10467 10469 10469 10471 10474 10477 10481 10484 10487 10490 10494 10497 10498 10500 10501 10503 10504 10506 10507 10508 10508 10509 10510 10511 10512 10513 10514 10514 10514 10515 10516 10515 10515 10515 10516 10516 10515 10515 10515 10515 10515 10514 10513 10512 10512 10512 10511 10511 10510 10510 10511 10512 10513 10514 10515 10516 10518 10520 10522 10523 10525 10526 10527 10530 10533 10535 10537 10539 10542 10544 10547 10550 10552 10555 10558 10559 10560
10434 10438 10441 10444 10448 10451 10454 10457 10460 10462 10463 10464 10466 10471 10474 10476 10479 10482 10486 10489 10491 10492 10493 10494 10496 10497 10499 10500 10501 10502 10503 10504 10505 10506 10507 10508 10508 10507 10508 10507 10507 10508 10509 10509 10509 10508 10508 10508 10508 10507 10507 10506 10506 10505 10505 10505 10505 10505 10505 10505 10505 10507 10508 10508 10510 10511 10513 10515 10517 10518 10519 10520 10523 10525 10528 10530 10532 10534 10537 10540 10543 10545 10548 10550 10552 10553
10429 10432 10436 10439 10442 10445 10448 10451 10454 10456 10458 10459 10462 10466 10468 10470 10473 10476 10480 10483 10484 10484 10486 10488 10490 10491 10493 10494 10495 10496 10496 10498 10499 10499 10500 10500 10500 10500 10500 10500 10500 10502 10503 10502 10501 10500 10499 10499 10499 10499 10499 10499 10499 10499 10499 10499 10499 10499 10499 10499 10499 10500 10501 10501 10502 10504 10506 10507 10509 10511 10513 10514 10516 10518 10520 10522 10524 10527 10530 10532 10535 10537 10539 10542 10544 10545
10425 10428 10431 10434 10437 10439 10442 10445 10448 10450 10452 10454 10456 10459 10461 10464 10466 10469 10473 10476 10477 10478 10480 10482 10484 10486 10486 10487 10488 10489 10490 10491 10492 10493 10493 10493 10493 10493 10493 10492 10493 10494 10494 10494 10493 10492 10491 10491 10491 10491 10491 10491 10491 10492 10492 10492 10493 10493 10493 10493 10493 10494 10494 10494 10495 10496 10498 10500 10502 10504 10506 10507 10509 10511 10513 10515 10517 10519 10522 10524 10526 10529 10531 10533 10535 10537
10422 10425 10427 10430 10432 10435 10437 10440 10442 10444 10446 10448 10450 10452 10455 10458 10461 10464 10467 10470 10472 10473 10473 10475 10478 10480 10480 10480 10481 10482 10483 10484 10485 10485 10486 10486 10487 10486 10485 10484 10484 10486 10486 10485 10485 10484 10483 10483 10483 10483 10483 10483 10484 10484 10484 10485 10485 10486 10487 10487 10487 10487 10488 10488 10488 10489 10490 10492 10494 10496 10498 10500 10502 10504 10506 10508 10509 10512 10515 10517 10519 10521 10523 10525 10527 10529
10418 10420 10422 10424 10427 10429 10432 10434 10436 10437 10440 10443 10446 10448 10451 10454 10457 10459 10461 10464 10465 10467 10467 10469 10471 10473 10474 10474 10474 10475 10476 10476 10477 10478 10478 10479 10479 10479 10477 10476 10476 10477 10477 10477 10477 10476 10476 10476 10475 10475 10475 10476 10476 10476 10477 10477 10478 10479 10480 10480 10480 10480 10481 10481 10481 10482 10483 10484 10486 10487 10490 10492 10494 10496 10498 10500 10502 10504 10507 10509 10511 10513 10515 10517 10519 10521
10412 10414 10416 10419 10421 10424 10426 10428 10430 10433 10436 10439 10441 10444 10447 10449 10451 10452 10454 10456 10458 10460 10461 10462 10464 10465 10466 10467 10467 10468 10468 10468 10469 10470 10470 10471 10471 10470 10470 10468 10468 10468 10469 10469 10469 10468 10468 10468 10467 10468 10468 10468 10468 10468 10468 10469 10470 10471 10472 10473 10473 10473 10473 10474 10474 10475 10475 10476 10477 10479 10481 10483 10486 10487 10489 10492 10494 10496 10499 10501 10502 10504 10507 10510 10512 10513
10407 10409 10411 10414 10416 10419 10421 10423 10426 10428 10431 10433 10435 10437 10440 10442 10443 10445 10447 10448 10450 10452 10453 10455 10456 10457 10458 10459 10460 10461 10461 10461 10462 10462 10462 10463 10463 10462 10462 10461 10460 10460 10460 10460 10460 10460 10460 10459 10460 10460 10460 10460 10460 10460 10460 10460 10461 10462 10463 10464 10464 10465 10465 10466 10466 10467 10467 10468 10469 10470 10472 10474 10477 10479 10480 10482 10485 10488 10489 10491 10494 10496 10498 10501 10503 10504
10402 10404 10406 10408 10410 10412 10414 10417 10419 10422 10424 10426 10428 10430 10432 10434 10435 10437 10439 10441 10442 10443 10445 10447 10448 10449 10450 10451 10452 10452 10453 10453 10454 10454 10455 10455 10455 10454 10454 10453 10452 10452 10451 10451 10451 10452 10451 10451 10451 10451 10451 10451 10451 10451 10451 10451 10452 10452 10454 10455 10456 10456 10457 10457 10458 10458 10459 10459 10460 10461 10463 10465 10467 10470 10472 10474 10476 10479 10480 10482 10484 10487 10489 10491 10493 10495
10396 10398 10400 10402 10404 10406 10407 10410 10412 10414 10416 10418 10420 10422 10424 10425 10427 10429 10431 10432 10434 10435 10437 10439 10440 10441 10441 10442 10443 10444 10444 10445 10446 10446 10447 10446 10446 10446 10445 10445 10445 10444 10444 10444 10444 10443 10443 10443 10443 10443 10443 10442 10442 10442 10442 10442 10443 10443 10444 10445 10446 10447 10448 10448 10449 10450 10450 10450 10451 10452 10453 10455 10457 10460 10463 10465 10467 10470 10471 10473 10475 10478 10481 10482 10483 10486
10390 10392 10394 10395 10397 10399 10401 10403 10405 10407 10408 10410 10412 10414 10416 10418 10420 10422 10423 10424 10425 10427 10428 10430 10431 10432 10433 10434 10435 10436 10437 10437 10438 10438 10438 10438 10438 10438 10437 10437 10437 10437 10436 10436 10436 10435 10435 10435 10434 10434 10433 10433 10433 10433 10433 10433 10434 10434 10434 10435 10436 10437 10438 10439 10439 10440 10441 10441 10441 10442 10443 10445 10446 10448 10451 10455 10457 10460 10462 10463 10465 10468 10471 10473 10474 10476
10383 10385 10387 10389 10391 10393 10394 10396 10398 10400 10401 10403 10405 10407 10409 10411 10413 10414 10415 10417 10418 10419 10421 10422 10424 10425 10426 10427 10428 10429 10429 10430 10430 10430 10430 10430 10430 10430 10430 10430 10429 10429 10429 10428 10428 10427 10426 10425 10425 10424 10424 10424 10424 10424 10424 10424 10424 10424 10425 10425 10426 10428 10429 10429 10430 10430 10431 10432 10432 10432 10432 10434 10436 10437 10439 10442 10446 10449 10451 10452 10453 10456 10460 10463 10464 10466
10376 10378 10380 10382 10384 10386 10388 10389 10391 10393 10395 10396 10398 10400 10402 10404 10406 10407 10409 10410 10412 10413 10415 10416 10417 10418 10419 10420 10421 10421 10422 10422 10422 10422 10422 10422 10422 10422 10422 10422 10422 10422 10421 10421 10420 10419 10418 10417 10416 10416 10415 10415 10415 10415 10415 10415 10415 10415 10415 10416 10416 10417 10419 10420 10420 10421 10421 10422 10422 10422 10422 10423 10425 10426 10428 10430 10433 10436 10440 10441 10442 10444 10448 10451 10454 10456
10370 10372 10374 10376 10377 10379 10381 10383 10384 10386 10388 10389 10391 10394 10396 10397 10399 10401 10402 10404 10405 10407 10408 10409 10409 10410 10411 10412 10413 10413 10414 10415 10415 10415 10415 10415 10415 10415 10415 10415 10414 10414 10414 10413 10412 10411 10411 10410 10409 10408 10407 10407 10407 10407 10407 10406 10406 10406 10406 10406 10406 10407 10408 10409 10409 10410 10411 10411 10412 10412 10412 10413 10414 10415 10417 10418 10420 10423 10427 10430 10430 10432 10435 10439 10442 10446